sat.trackr.live / text

‹ back to catalog

STARLINK-31842

NORAD 59672 · 2024-084U

PAYLOAD ACTIVE UNKNOWN

§ Identity

Operator
Country
US
Launch date
2024-05-06
Launch site
AFETR
Launch vehicle
Mass (kg)
RCS (m²)

Purposes: comms

External: N2YO · Heavens-Above · Gunter

§ Orbital elements

Epoch: 2026-09-21T14:20:30.719328Z

Period
94.27 min
Inclination
43.0031°
Eccentricity
0.0000969
Mean motion
15.27581755 rev/d
Perigee alt
482.4 km
Apogee alt
483.7 km
Semi-major
6,861.2 km
B*
3.7978e-5
RAAN
12.0441°
Arg perigee
267.5908°
Mean anomaly
92.4833°
Rev number
13,437

§ Raw data

STARLINK-318421 59672U 24084U   26264.59757777  .00000783  00000+0  37978-4 0  99962 59672  43.0031  12.0441 0000969 267.5908  92.4833 15.27581755134378

JSON: /api/v1/satellites/59672 · /tle

For live sub-satellite position, see the globe view (requires WebGL).

§ Visibility from observer

Set your observer location to see the next 7 days of passes ≥ 10°. The values pass through the URL so the page stays shareable.

No JS? Fill the form by hand. The geolocation button needs JavaScript.